When you browse on this site, cookies collect data to enhance your experience and personalize the content and advertising you see.
Visit our Privacy Policy to learn more. By continuing to use the site, you agree to this use of cookies and data.
  • In Österreich
  • Länderverzeichnis
  • Für 7 Tage
  • Wassertemperatur
  • Wetterkarte
  • News
  • Widgets
  • user-avatar
    Anmelden

    Stündliche Wetter Knyaz-Bor

    Heute, 3 Juni, Mittwoch

    Zeit Temperatur Niederschläge Wind Luftdruck Luftfeuchtigkeit
    00:00 +7°C° 0 mm 3 m/S 741 mmHg 96%
    01:00 +7°C° 0 mm 3 m/S 741 mmHg 97%
    02:00 +7°C° 0 mm 3 m/S 742 mmHg 99%
    03:00 +7°C° 0 mm 3 m/S 741 mmHg 98%
    04:00 +7°C° 0 mm 3 m/S 741 mmHg 97%
    05:00 +6°C° 0 mm 4 m/S 741 mmHg 97%
    06:00 +7°C° 0.1 mm 3 m/S 741 mmHg 96%
    07:00 +8°C° 0.1 mm 3 m/S 741 mmHg 94%
    08:00 +9°C° 0 mm 3 m/S 741 mmHg 93%
    09:00 +9°C° 0.5 mm 3 m/S 741 mmHg 91%
    10:00 +10°C° 0.5 mm 4 m/S 741 mmHg 89%
    11:00 +11°C° 0.5 mm 4 m/S 741 mmHg 86%
    12:00 +12°C° 0.4 mm 4 m/S 741 mmHg 82%
    13:00 +13°C° 0.4 mm 3 m/S 741 mmHg 78%
    14:00 +13°C° 0 mm 3 m/S 741 mmHg 75%
    15:00 +13°C° 0.4 mm 3 m/S 741 mmHg 76%
    16:00 +13°C° 0.4 mm 3 m/S 741 mmHg 76%
    17:00 +13°C° 0.4 mm 3 m/S 740 mmHg 77%
    18:00 +12°C° 0.2 mm 3 m/S 740 mmHg 82%
    19:00 +12°C° 0.2 mm 2 m/S 740 mmHg 86%
    20:00 +10°C° 0.2 mm 2 m/S 740 mmHg 91%
    21:00 +9°C° 0 mm 2 m/S 740 mmHg 92%
    22:00 +8°C° 0 mm 2 m/S 740 mmHg 94%
    23:00 +7°C° 0 mm 2 m/S 740 mmHg 96%

    Morgen, 4 Juni, Donnerstag

    Zeit Temperatur Niederschläge Wind Luftdruck Luftfeuchtigkeit
    00:00 +7°C° 0 mm 2 m/S 740 mmHg 96%
    01:00 +6°C° 0 mm 2 m/S 740 mmHg 97%
    02:00 +6°C° 0 mm 2 m/S 741 mmHg 97%
    03:00 +6°C° 0 mm 2 m/S 740 mmHg 98%
    04:00 +6°C° 0 mm 2 m/S 740 mmHg 98%
    05:00 +6°C° 0 mm 2 m/S 740 mmHg 98%
    06:00 +8°C° 0 mm 2 m/S 740 mmHg 95%
    07:00 +9°C° 0 mm 2 m/S 740 mmHg 91%
    08:00 +11°C° 0 mm 3 m/S 740 mmHg 88%
    09:00 +12°C° 0.4 mm 3 m/S 740 mmHg 84%
    10:00 +13°C° 0.4 mm 3 m/S 740 mmHg 80%
    11:00 +16°C° 0.4 mm 3 m/S 740 mmHg 77%
    12:00 +15°C° 0.8 mm 4 m/S 740 mmHg 76%
    13:00 +15°C° 0.8 mm 4 m/S 740 mmHg 75%
    14:00 +17°C° 0.8 mm 4 m/S 740 mmHg 74%
    15:00 +17°C° 0.4 mm 4 m/S 740 mmHg 74%
    16:00 +17°C° 0.4 mm 4 m/S 739 mmHg 75%
    17:00 +17°C° 0.4 mm 3 m/S 739 mmHg 75%
    18:00 +14°C° 0.3 mm 3 m/S 739 mmHg 79%
    19:00 +14°C° 0.3 mm 2 m/S 739 mmHg 84%
    20:00 +13°C° 0.3 mm 2 m/S 739 mmHg 88%
    21:00 +12°C° 0 mm 2 m/S 739 mmHg 90%
    22:00 +10°C° 0 mm 2 m/S 740 mmHg 91%
    23:00 +10°C° 0 mm 2 m/S 740 mmHg 93%

    übermorgen, 5 Juni, Freitag

    Zeit Temperatur Niederschläge Wind Luftdruck Luftfeuchtigkeit
    00:00 +9°C° 0 mm 2 m/S 740 mmHg 93%
    01:00 +9°C° 0 mm 2 m/S 740 mmHg 94%
    02:00 +10°C° 0 mm 1 m/S 739 mmHg 94%
    03:00 +9°C° 0 mm 2 m/S 739 mmHg 95%
    04:00 +9°C° 0 mm 2 m/S 739 mmHg 95%
    05:00 +9°C° 0 mm 2 m/S 739 mmHg 96%
    06:00 +12°C° 0 mm 2 m/S 739 mmHg 92%
    07:00 +14°C° 0 mm 2 m/S 739 mmHg 89%
    08:00 +16°C° 0 mm 2 m/S 739 mmHg 86%
    09:00 +17°C° 0.1 mm 3 m/S 740 mmHg 83%
    10:00 +18°C° 0.1 mm 4 m/S 740 mmHg 81%
    11:00 +19°C° 0.1 mm 5 m/S 740 mmHg 79%
    12:00 +19°C° 0.2 mm 5 m/S 740 mmHg 80%
    13:00 +19°C° 0.2 mm 5 m/S 740 mmHg 80%
    14:00 +19°C° 0.2 mm 5 m/S 740 mmHg 81%
    15:00 +20°C° 0 mm 4 m/S 740 mmHg 79%
    16:00 +21°C° 0 mm 4 m/S 740 mmHg 76%
    17:00 +21°C° 0 mm 4 m/S 740 mmHg 73%
    18:00 +20°C° 0.5 mm 4 m/S 740 mmHg 79%
    19:00 +19°C° 0.5 mm 4 m/S 740 mmHg 85%
    20:00 +18°C° 0.5 mm 3 m/S 741 mmHg 91%
    21:00 +17°C° 0.1 mm 3 m/S 741 mmHg 92%
    22:00 +17°C° 0.1 mm 3 m/S 741 mmHg 94%
    23:00 +16°C° 0.1 mm 3 m/S 741 mmHg 95%

    6 Juni, Samstag

    Zeit Temperatur Niederschläge Wind Luftdruck Luftfeuchtigkeit
    00:00 +16°C° 0 mm 3 m/S 741 mmHg 95%
    01:00 +16°C° 0 mm 3 m/S 741 mmHg 95%
    02:00 +14°C° 0 mm 3 m/S 741 mmHg 94%
    03:00 +14°C° 0 mm 3 m/S 741 mmHg 94%
    04:00 +16°C° 0 mm 3 m/S 741 mmHg 94%
    05:00 +16°C° 0 mm 3 m/S 741 mmHg 93%
    06:00 +16°C° 0 mm 3 m/S 742 mmHg 92%
    07:00 +17°C° 0 mm 3 m/S 742 mmHg 91%
    08:00 +17°C° 0 mm 4 m/S 743 mmHg 90%
    09:00 +17°C° 0.2 mm 3 m/S 743 mmHg 91%
    10:00 +17°C° 0.2 mm 3 m/S 744 mmHg 92%
    11:00 +17°C° 0.2 mm 2 m/S 744 mmHg 94%
    12:00 +19°C° 0.1 mm 3 m/S 745 mmHg 88%
    13:00 +20°C° 0.1 mm 3 m/S 745 mmHg 82%
    14:00 +22°C° 0.1 mm 3 m/S 745 mmHg 76%
    15:00 +22°C° 0.6 mm 3 m/S 745 mmHg 77%
    16:00 +23°C° 0.6 mm 2 m/S 746 mmHg 78%
    17:00 +23°C° 0.6 mm 2 m/S 746 mmHg 79%
    18:00 +21°C° 0.1 mm 2 m/S 746 mmHg 82%
    19:00 +20°C° 0.1 mm 1 m/S 746 mmHg 85%
    20:00 +17°C° 0.1 mm 0 m/S 747 mmHg 87%
    21:00 +16°C° 0 mm 0 m/S 747 mmHg 88%
    22:00 +15°C° 0 mm 0 m/S 747 mmHg 88%
    23:00 +15°C° 0 mm 0 m/S 748 mmHg 89%

    7 Juni, Sonntag

    Zeit Temperatur Niederschläge Wind Luftdruck Luftfeuchtigkeit
    00:00 +16°C° 0 mm 1 m/S 748 mmHg 89%
    01:00 +16°C° 0 mm 1 m/S 748 mmHg 89%
    02:00 +15°C° 0 mm 1 m/S 748 mmHg 90%
    03:00 +16°C° 0 mm 1 m/S 749 mmHg 91%
    04:00 +16°C° 0 mm 2 m/S 749 mmHg 92%
    05:00 +16°C° 0 mm 2 m/S 749 mmHg 93%
    06:00 +17°C° 0 mm 2 m/S 749 mmHg 91%
    07:00 +18°C° 0 mm 3 m/S 749 mmHg 89%
    08:00 +19°C° 0 mm 3 m/S 749 mmHg 87%
    09:00 +21°C° 0.1 mm 4 m/S 749 mmHg 81%
    10:00 +23°C° 0.1 mm 4 m/S 749 mmHg 74%
    11:00 +26°C° 0.1 mm 5 m/S 749 mmHg 68%
    12:00 +27°C° 0.5 mm 5 m/S 748 mmHg 65%
    13:00 +27°C° 0.5 mm 5 m/S 748 mmHg 62%
    14:00 +28°C° 0.5 mm 5 m/S 748 mmHg 58%
    15:00 +28°C° 0.3 mm 5 m/S 747 mmHg 61%
    16:00 +27°C° 0.3 mm 4 m/S 747 mmHg 63%
    17:00 +27°C° 0.3 mm 4 m/S 747 mmHg 65%
    18:00 +25°C° 0 mm 4 m/S 747 mmHg 70%
    19:00 +22°C° 0 mm 3 m/S 747 mmHg 75%
    20:00 +21°C° 0 mm 3 m/S 747 mmHg 80%
    21:00 +20°C° 0 mm 3 m/S 747 mmHg 82%
    22:00 +19°C° 0 mm 2 m/S 748 mmHg 84%
    23:00 +18°C° 0 mm 2 m/S 748 mmHg 86%

    8 Juni, Montag

    Zeit Temperatur Niederschläge Wind Luftdruck Luftfeuchtigkeit
    00:00 +18°C° 0 mm 2 m/S 748 mmHg 88%
    01:00 +18°C° 0 mm 2 m/S 748 mmHg 89%
    02:00 +17°C° 0 mm 2 m/S 748 mmHg 91%
    03:00 +17°C° 0 mm 2 m/S 747 mmHg 91%
    04:00 +17°C° 0 mm 2 m/S 747 mmHg 92%
    05:00 +17°C° 0 mm 2 m/S 747 mmHg 92%
    06:00 +18°C° 0.1 mm 2 m/S 747 mmHg 88%
    07:00 +20°C° 0.1 mm 3 m/S 747 mmHg 84%
    08:00 +22°C° 0.1 mm 3 m/S 747 mmHg 79%
    09:00 +24°C° 0.5 mm 3 m/S 747 mmHg 74%
    10:00 +26°C° 0.5 mm 4 m/S 747 mmHg 70%
    11:00 +27°C° 0.5 mm 4 m/S 746 mmHg 65%
    12:00 +27°C° 1.2 mm 4 m/S 746 mmHg 68%
    13:00 +27°C° 1.2 mm 4 m/S 746 mmHg 70%
    14:00 +26°C° 1.2 mm 4 m/S 746 mmHg 73%
    15:00 +26°C° 1.4 mm 4 m/S 746 mmHg 76%
    16:00 +26°C° 1.4 mm 3 m/S 745 mmHg 78%
    17:00 +25°C° 1.4 mm 3 m/S 745 mmHg 80%
    18:00 +24°C° 0.3 mm 3 m/S 745 mmHg 83%
    19:00 +23°C° 0.3 mm 2 m/S 745 mmHg 87%
    20:00 +21°C° 0.3 mm 2 m/S 746 mmHg 90%
    21:00 +20°C° 0.3 mm 2 m/S 746 mmHg 91%
    22:00 +19°C° 0.3 mm 2 m/S 746 mmHg 93%
    23:00 +19°C° 0.3 mm 3 m/S 746 mmHg 95%
    Mehr zeigen